| time (UTC) | temp F | wind direction | speed MPH | gust MPH | rain 1hr in | rain 24hr in | rain mn in | humidity % | barometer mb |
| 20260507003026 | 64 | 313 | 13.0 | 21.0 | 0.20 | 0.24 | 0.24 | 94 | 1016.3 |
| 20260507001530 | 64 | 90 | 3.0 | 13.0 | 0.01 | 0.04 | 0.04 | 93 | 1011.9 |
| 20260507000030 | 65 | 117 | 6.0 | 12.0 | 0.01 | 0.04 | 0.04 | 92 | 1011.8 |
| 20260506234527 | 65 | 78 | 5.0 | 11.0 | 0.01 | 0.04 | 0.04 | 90 | 1012.9 |
| 20260506233026 | 66 | 82 | 7.0 | 15.0 | 0.01 | 0.04 | 0.04 | 88 | 1013.1 |
| 20260506231528 | 69 | 15 | 4.0 | 14.0 | 0.00 | 0.03 | 0.03 | 84 | 1013.7 |
| 20260506230031 | 71 | 38 | 10.0 | 20.0 | 0.00 | 0.03 | 0.03 | 79 | 1013.4 |
| 20260506224530 | 73 | 45 | 6.0 | 10.0 | 0.00 | 0.03 | 0.03 | 79 | 1013.2 |
| 20260506223029 | 75 | 49 | 5.0 | 9.0 | 0.00 | 0.03 | 0.03 | 76 | 1012.5 |
| 20260506221527 | 75 | 0 | 0.0 | 2.0 | 0.00 | 0.03 | 0.03 | 75 | 1012.1 |
| 20260506220026 | 75 | 154 | 1.0 | 3.0 | 0.00 | 0.03 | 0.03 | 75 | 1012.1 |
| 20260506214528 | 75 | 185 | 4.0 | 8.0 | 0.00 | 0.03 | 0.03 | 74 | 1012.2 |
| 20260506213027 | 75 | 192 | 1.0 | 4.0 | 0.00 | 0.03 | 0.03 | 74 | 1012.2 |
| 20260506211530 | 74 | 0 | 0.0 | 1.0 | 0.00 | 0.03 | 0.03 | 78 | 1012.9 |
| 20260506210036 | 74 | 0 | 0.0 | 4.0 | 0.00 | 0.03 | 0.03 | 75 | 1013.3 |
| 20260506204529 | 74 | 329 | 2.0 | 5.0 | 0.00 | 0.03 | 0.03 | 75 | 1013.7 |
| 20260506203026 | 74 | 269 | 4.0 | 8.0 | 0.00 | 0.03 | 0.03 | 74 | 1013.6 |
| 20260506201528 | 74 | 284 | 3.0 | 9.0 | 0.00 | 0.03 | 0.03 | 75 | 1013.7 |
| 20260506200028 | 74 | 244 | 5.0 | 12.0 | 0.00 | 0.03 | 0.03 | 76 | 1014.1 |
| 20260506194527 | 74 | 233 | 8.0 | 13.0 | 0.00 | 0.03 | 0.03 | 74 | 1014.3 |
| 20260506193027 | 74 | 265 | 5.0 | 11.0 | 0.00 | 0.03 | 0.03 | 75 | 1014.3 |
| 20260506191531 | 74 | 271 | 7.0 | 12.0 | 0.00 | 0.03 | 0.03 | 76 | 1014.6 |
| 20260506190028 | 74 | 315 | 4.0 | 12.0 | 0.00 | 0.03 | 0.03 | 77 | 1014.9 |
| 20260506184527 | 73 | 256 | 6.0 | 11.0 | 0.00 | 0.03 | 0.03 | 78 | 1015.0 |
| 20260506183026 | 73 | 304 | 5.0 | 10.0 | 0.00 | 0.03 | 0.03 | 81 | 1015.1 |
| 20260506181531 | 72 | 299 | 3.0 | 8.0 | 0.00 | 0.03 | 0.03 | 83 | 1015.0 |
| 20260506180039 | 70 | 290 | 2.0 | 9.0 | 0.00 | 0.03 | 0.03 | 83 | 1015.0 |
| 20260506174529 | 70 | 267 | 4.0 | 9.0 | 0.00 | 0.03 | 0.03 | 83 | 1015.1 |
| 20260506173027 | 69 | 225 | 4.0 | 7.0 | 0.03 | 0.03 | 0.03 | 87 | 1015.1 |
| 20260506171543 | 68 | 287 | 3.0 | 7.0 | 0.03 | 0.03 | 0.03 | 86 | 1015.5 |
| 20260506170026 | 68 | 307 | 2.0 | 6.0 | 0.03 | 0.03 | 0.03 | 87 | 1015.9 |
| 20260506164528 | 68 | 250 | 2.0 | 8.0 | 0.03 | 0.03 | 0.03 | 84 | 1015.7 |
| 20260506163034 | 68 | 221 | 9.0 | 15.0 | 0.00 | 0.00 | 0.00 | 82 | 1016.5 |
| 20260506161539 | 68 | 255 | 9.0 | 12.0 | 0.00 | 0.00 | 0.00 | 80 | 1016.6 |
| 20260506160029 | 68 | 277 | 7.0 | 15.0 | 0.00 | 0.00 | 0.00 | 80 | 1016.4 |
| 20260506154530 | 68 | 288 | 7.0 | 12.0 | 0.00 | 0.00 | 0.00 | 81 | 1016.1 |
| 20260506153028 | 68 | 221 | 7.0 | 13.0 | 0.00 | 0.00 | 0.00 | 81 | 1015.9 |
| 20260506151528 | 68 | 236 | 8.0 | 15.0 | 0.00 | 0.00 | 0.00 | 81 | 1015.7 |
| 20260506150029 | 67 | 248 | 5.0 | 10.0 | 0.00 | 0.00 | 0.00 | 81 | 1015.8 |
| 20260506144529 | 67 | 243 | 8.0 | 14.0 | 0.00 | 0.00 | 0.00 | 81 | 1015.4 |
| 20260506143028 | 66 | 244 | 9.0 | 13.0 | 0.00 | 0.00 | 0.00 | 80 | 1015.4 |
| 20260506141528 | 66 | 238 | 8.0 | 14.0 | 0.00 | 0.00 | 0.00 | 80 | 1015.1 |
| 20260506140026 | 66 | 236 | 6.0 | 14.0 | 0.00 | 0.00 | 0.00 | 80 | 1014.9 |
| 20260506134602 | 65 | 238 | 8.0 | 14.0 | 0.00 | 0.00 | 0.00 | 79 | 1015.1 |
| 20260506133026 | 65 | 216 | 6.0 | 14.0 | 0.00 | 0.00 | 0.00 | 79 | 1015.1 |
| 20260506131532 | 64 | 227 | 6.0 | 11.0 | 0.00 | 0.00 | 0.00 | 78 | 1015.0 |
| 20260506130030 | 64 | 213 | 5.0 | 11.0 | 0.00 | 0.00 | 0.00 | 78 | 1015.2 |
| 20260506124529 | 64 | 240 | 6.0 | 11.0 | 0.00 | 0.00 | 0.00 | 78 | 1015.2 |
| 20260506123030 | 64 | 240 | 4.0 | 11.0 | 0.00 | 0.00 | 0.00 | 77 | 1015.0 |
| 20260506121527 | 64 | 265 | 6.0 | 10.0 | 0.00 | 0.00 | 0.00 | 76 | 1015.1 |
| 20260506120028 | 64 | 261 | 4.0 | 11.0 | 0.00 | 0.00 | 0.00 | 75 | 1014.6 |
| 20260506114535 | 64 | 234 | 4.0 | 8.0 | 0.00 | 0.00 | 0.00 | 74 | 1014.5 |
| 20260506113033 | 64 | 257 | 2.0 | 7.0 | 0.00 | 0.00 | 0.00 | 73 | 1014.8 |
| 20260506111530 | 63 | 235 | 4.0 | 9.0 | 0.00 | 0.00 | 0.00 | 73 | 1014.7 |
| 20260506110026 | 64 | 202 | 3.0 | 6.0 | 0.00 | 0.00 | 0.00 | 72 | 1014.4 |
| 20260506104526 | 64 | 206 | 4.0 | 7.0 | 0.00 | 0.00 | 0.00 | 71 | 1014.4 |
| 20260506103032 | 64 | 210 | 5.0 | 9.0 | 0.00 | 0.00 | 0.00 | 70 | 1014.2 |
| 20260506101530 | 64 | 213 | 6.0 | 11.0 | 0.00 | 0.00 | 0.00 | 70 | 1014.0 |
| 20260506100034 | 64 | 211 | 7.0 | 12.0 | 0.00 | 0.00 | 0.00 | 69 | 1013.7 |
| 20260506094528 | 64 | 221 | 9.0 | 14.0 | 0.00 | 0.00 | 0.00 | 68 | 1013.8 |
| 20260506093028 | 64 | 216 | 8.0 | 14.0 | 0.00 | 0.00 | 0.00 | 66 | 1013.9 |
| 20260506091528 | 65 | 223 | 8.0 | 14.0 | 0.00 | 0.00 | 0.00 | 65 | 1013.8 |
| 20260506090027 | 65 | 216 | 9.0 | 17.0 | 0.00 | 0.00 | 0.00 | 64 | 1013.8 |
| 20260506084530 | 65 | 213 | 10.0 | 15.0 | 0.00 | 0.00 | 0.00 | 63 | 1014.0 |
| 20260506083027 | 65 | 207 | 9.0 | 16.0 | 0.00 | 0.00 | 0.00 | 64 | 1014.0 |
| 20260506081531 | 65 | 200 | 7.0 | 15.0 | 0.00 | 0.00 | 0.00 | 64 | 1014.2 |
| 20260506073033 | 66 | 213 | 6.0 | 11.0 | 0.00 | 0.00 | 0.00 | 62 | 1014.2 |
| 20260506071527 | 66 | 232 | 6.0 | 11.0 | 0.00 | 0.00 | 0.00 | 61 | 1014.3 |
| 20260506061535 | 67 | 240 | 7.0 | 11.0 | 0.00 | 0.00 | 0.00 | 61 | 1014.4 |
| 20260506044526 | 68 | 244 | 5.0 | 9.0 | 0.00 | 0.00 | 0.00 | 59 | 1014.7 |
| 20260506043027 | 69 | 257 | 6.0 | 9.0 | 0.00 | 0.00 | 0.00 | 58 | 1014.8 |
| 20260506041526 | 69 | 245 | 6.0 | 12.0 | 0.00 | 0.00 | 0.00 | 57 | 1014.7 |
| 20260506040029 | 69 | 242 | 6.0 | 10.0 | 0.00 | 0.00 | 0.00 | 56 | 1014.7 |
| 20260506034530 | 69 | 232 | 6.0 | 12.0 | 0.00 | 0.00 | 0.00 | 56 | 1014.8 |
| 20260506033028 | 70 | 246 | 8.0 | 15.0 | 0.00 | 0.00 | 0.00 | 54 | 1014.7 |
| 20260506031536 | 70 | 228 | 9.0 | 13.0 | 0.00 | 0.00 | 0.00 | 55 | 1014.6 |
| 20260506030030 | 70 | 207 | 9.0 | 14.0 | 0.00 | 0.00 | 0.00 | 55 | 1014.7 |
| 20260506024538 | 70 | 222 | 8.0 | 12.0 | 0.00 | 0.00 | 0.00 | 55 | 1014.6 |
| 20260506023028 | 70 | 227 | 8.0 | 12.0 | 0.00 | 0.00 | 0.00 | 55 | 1014.7 |
| 20260506021528 | 71 | 223 | 7.0 | 12.0 | 0.00 | 0.00 | 0.00 | 54 | 1014.6 |
| 20260506020028 | 71 | 221 | 8.0 | 12.0 | 0.00 | 0.00 | 0.00 | 54 | 1014.3 |
| 20260506014528 | 72 | 216 | 8.0 | 13.0 | 0.00 | 0.00 | 0.00 | 54 | 1014.1 |
| 20260506013031 | 72 | 225 | 6.0 | 9.0 | 0.00 | 0.00 | 0.00 | 54 | 1014.3 |
| 20260506011557 | 72 | 227 | 5.0 | 7.0 | 0.00 | 0.00 | 0.00 | 54 | 1014.4 |
| 20260506010027 | 72 | 227 | 4.0 | 7.0 | 0.00 | 0.00 | 0.00 | 53 | 1014.4 |
| 20260506004528 | 73 | 223 | 6.0 | 10.0 | 0.00 | 0.00 | 0.00 | 52 | 1014.3 |